METAR AND TAF INFORMATION
METAR FOR KPHX
KPHX 211551Z 13016G23KT 10SM FEW110 FEW230 39/16 A2968 RMK AO2 SLP025 T03890161
KPHX 211451Z 11014G24KT 080V150 9SM FEW110 FEW230 37/16 A2967 RMK AO2 SLP023 T03720161 51014
KPHX 211351Z 07009KT 8SM FEW110 FEW230 35/16 A2966 RMK AO2 SLP021 T03500161
KPHX 211456Z 2115/2218 12014G23KT P6SM FEW250
FM211900 17010G20KT P6SM FEW100 SCT250
FM212300 25008G18KT P6SM SCT100 SCT250
FM220200 11015G25KT P6SM SCT100 SCT250
FM220400 12012KT P6SM FEW100 SCT250

 AIRPORT MAP

 RUNWAY INFORMATION
Runway 07L Runway length 10300 ft Runway width 150 ft
Runway elevation 1110 ft Runway displaced threshold 0 ft Runway heading 90
Runway 25R Runway length 10300 ft Runway width 150 ft
Runway elevation 1134 ft Runway displaced threshold 0 ft Runway heading 270
Runway 07R Runway length 7800 ft Runway width 150 ft
Runway elevation 1111 ft Runway displaced threshold 0 ft Runway heading 90
Runway 25L Runway length 7800 ft Runway width 150 ft
Runway elevation 1126 ft Runway displaced threshold 0 ft Runway heading 270
Runway 08 Runway length 11489 ft Runway width 150 ft
Runway elevation 1113 ft Runway displaced threshold 898 ft Runway heading 90
Runway 26 Runway length 11489 ft Runway width 150 ft
Runway elevation 1135 ft Runway displaced threshold 0 ft Runway heading 270

 AIRPORT FREQUENCIES
Type A/D Name APP/DEP Frequency 124.1 MHZ
Type ATIS Name ATIS Frequency 127.575 MHZ
Type CLD Name CLNC DEL Frequency 118.1 MHZ
Type GND Name GND Frequency 119.75 MHZ
Type POST Name ANG COMD P Frequency 140 MHZ
Type RDO Name PRESCOTT R Frequency 122.2 MHZ
Type TWR Name TWR Frequency 118.7 MHZ
Type UNIC Name UNICOM Frequency 122.95 MHZ

 AIRPORT NEAR NAVIGATION AIDS

-